Content
SEND FEEDBACK

Daily
Averages
Monthly
Summary
Tonga

FUA'AMOTU, TONGA


Home > Oceania > Tonga
Elevation: 160 feet     Latitude: 21 14S     Longitude: 175 08W

WEATHER
 
SELECT A DAY
Number of Records: 119,664;   Date Range: 9/11/97 - 11/25/14
 
SHARE

PRINT THIS DATA

[ ← Previous Day ]
WEATHER ALMANAC - FEBRUARY 13, 2013
[ Next Day → ]
[ °C ]   °F
Weather ElementAverageHighLow
Temperature80.2 °F87.8 °F (12:00 pm)73.4 °F (6:00 am)
Dewpoint77.9 °F81 °F (1:00 pm)73.4 °F (5:00 am)
Humidity92.7 %100 % (1:00 am)79 % (12:00 pm)
Barometer29.91 in29.95 in (10:00 pm)29.86 in (4:00 am)
Wind Speed5.9 mph15.7 mph (1:00 pm)
Weather ElementAverage
Visibility7.1 mi
Wind DirectionENE (70.4 °)

Weather ElementTotal
Precipitation---
Cooling Degree Days15.6 (Base 65)
Growing Degree Days30.6 (Base 50)
Averaged from 27 records on February 13, 2013
WEATHER CONDITIONS BREAKOUT
WIND DIRECTION BREAKOUT
WEATHER BY HOUR - FEBRUARY 13, 2013
[ °C ]   °F
Local TimeTemperatureDewpointHumidityBarometerVisibilityWind DirectionWind SpeedGust SpeedPrecipitationEventsConditions
1:00 AM77.0 °F76.0 °F98 %29.93 in12.0 miENE (60°)4.6 mph
1:00 AM77.0 °F77.0 °F100 %29.92 in6.2 miENE (60°)4.6 mphPartly Cloudy
2:00 AM80.6 °F77.0 °F89 %29.92 in6.2 miENE (60°)4.6 mphPartly Cloudy
3:00 AM78.8 °F77.0 °F94 %29.89 in6.2 miNNE (20°)5.8 mphScattered Clouds
4:00 AM75.2 °F75.2 °F100 %29.86 in6.2 miNE (40°)3.5 mphScattered Clouds
5:00 AM75.2 °F73.4 °F94 %29.86 in6.2 miNE (40°)3.5 mphScattered Clouds
6:00 AM73.4 °F73.4 °F100 %29.89 in6.2 miNE (50°)3.5 mphPartly Cloudy
7:00 AM74.0 °F74.0 °F100 %29.91 in12.0 miCalmPartly Cloudy
7:00 AM75.2 °F73.4 °F94 %29.89 in6.2 miCalmPartly Cloudy
8:00 AM77.0 °F77.0 °F100 %29.92 in6.2 miEast (80°)3.5 mphPartly Cloudy
9:00 AM82.4 °F78.8 °F89 %29.92 in6.2 miENE (70°)6.9 mphScattered Clouds
10:00 AM86.0 °F80.6 °F84 %29.92 in6.2 miENE (70°)6.9 mphMostly Cloudy
11:00 AM86.0 °F80.6 °F84 %29.92 in6.2 miEast (80°)6.9 mphLight Drizzle
12:00 PM87.8 °F80.6 °F79 %29.92 in6.2 miEast (80°)6.9 mphMostly Cloudy
1:00 PM83.0 °F81.0 °F91 %29.92 in12.0 miEast (100°)15.7 mphRainLight Rain Showers
1:00 PM84.2 °F80.6 °F89 %29.92 in6.2 miEast (100°)8.1 mphMostly Cloudy
2:00 PM82.4 °F80.6 °F94 %29.89 in6.2 miEast (100°)10.4 mphRainLight Rain Showers
3:00 PM84.2 °F80.6 °F89 %29.89 in6.2 miEast (90°)5.8 mphMostly Cloudy
4:00 PM84.2 °F80.6 °F89 %29.89 in6.2 miEast (100°)9.2 mphRainLight Rain Showers
5:00 PM82.4 °F80.6 °F94 %29.89 in6.2 miEast (80°)4.6 mphRainLight Rain Showers
6:00 PM82.4 °F78.8 °F89 %29.89 in6.2 miEast (80°)6.9 mphRainLight Rain Showers
7:00 PM81.0 °F79.0 °F92 %29.91 in12.0 miEast (80°)11.2 mphRainLight Rain Showers
7:00 PM80.6 °F78.8 °F94 %29.92 in6.2 miEast (80°)5.8 mphMostly Cloudy
8:00 PM78.8 °F78.8 °F100 %29.92 in6.2 miEast (90°)4.6 mphMostly Cloudy
9:00 PM78.8 °F75.2 °F89 %29.92 in6.2 miENE (70°)5.8 mphMostly Cloudy
10:00 PM78.8 °F77.0 °F94 %29.95 in6.2 miENE (70°)4.6 mphMostly Cloudy
11:00 PM78.8 °F77.0 °F94 %29.95 in6.2 miEast (80°)4.6 mphMostly Cloudy
Hourly data recorded from NFTF, located miles away from Fua'amotu, Tonga







STORIES FROM OUR PARTNERS